Location: Newark
(52.9300°N, 3.3400°W)
Time: 16:46:56
(UTC+00:00)

ISS - Visible Passes

Search period start: 08 March 2021 00:00
Search period end: 18 March 2021 00:00
Orbit: 417 x 422 km, 51.6° (Epoch: 08 March)

Date Brightness Start Highest point End Pass type
(mag) Time Alt. Az. Time Alt. Az. Time Alt. Az.
08 Mar -3.4 04:46:10 48° SSW 04:46:10 48° SSW 04:49:21 10° ESE visible
09 Mar -1.6 04:00:41 21° ESE 04:00:41 21° ESE 04:01:59 10° ESE visible
09 Mar -2.3 05:33:39 17° WSW 05:35:04 22° SSW 05:37:43 10° SSE visible
10 Mar -2.5 04:48:16 27° S 04:48:16 27° S 04:50:41 10° SE visible
11 Mar -1.1 04:03:00 13° SE 04:03:00 13° SE 04:03:29 10° SE visible
11 Mar -1.5 05:35:59 11° SW 05:36:28 11° SW 05:37:30 10° SSW visible
12 Mar -1.3 04:50:53 12° S 04:50:53 12° S 04:51:19 10° S visible
